• In Russia
  • List of Countries
  • For 7 days
  • Water Temperature
  • Satellite Maps
  • Weather Map
  • Weather Widgets
  • user-avatar
    Login

    Hourly Weather Mafeteng

    Today, 17 August, Friday

    Time Temperature Precipitation Wind Pressure Humidity
    00:00 +10°C° 0 mm 1 mps 625 mmHg 22%
    01:00 +10°C° 0 mm 1 mps 625 mmHg 22%
    02:00 +10°C° 0 mm 1 mps 624 mmHg 23%
    03:00 +9°C° 0 mm 1 mps 624 mmHg 23%
    04:00 +8°C° 0 mm 1 mps 624 mmHg 24%
    05:00 +8°C° 0 mm 1 mps 624 mmHg 24%
    06:00 +8°C° 0 mm 1 mps 624 mmHg 26%
    07:00 +9°C° 0 mm 1 mps 625 mmHg 27%
    08:00 +10°C° 0 mm 1 mps 626 mmHg 28%
    09:00 +12°C° 0 mm 1 mps 626 mmHg 24%
    10:00 +13°C° 0 mm 2 mps 627 mmHg 21%
    11:00 +14°C° 0 mm 3 mps 627 mmHg 17%
    12:00 +14°C° 0 mm 3 mps 627 mmHg 17%
    13:00 +15°C° 0 mm 4 mps 627 mmHg 16%
    14:00 +15°C° 0 mm 5 mps 627 mmHg 16%
    15:00 +15°C° 0 mm 4 mps 627 mmHg 18%
    16:00 +14°C° 0 mm 4 mps 627 mmHg 20%
    17:00 +13°C° 0 mm 4 mps 628 mmHg 22%
    18:00 +11°C° 0 mm 3 mps 628 mmHg 29%
    19:00 +10°C° 0 mm 3 mps 628 mmHg 36%
    20:00 +8°C° 0 mm 3 mps 628 mmHg 43%
    21:00 +7°C° 0 mm 3 mps 628 mmHg 48%
    22:00 +5°C° 0 mm 3 mps 628 mmHg 53%
    23:00 +5°C° 0 mm 3 mps 628 mmHg 58%

    Tomorrow, 18 August, Saturday

    Time Temperature Precipitation Wind Pressure Humidity
    00:00 +4°C° 0 mm 3 mps 628 mmHg 61%
    01:00 +5°C° 0 mm 2 mps 628 mmHg 65%
    02:00 +4°C° 0 mm 2 mps 628 mmHg 68%
    03:00 +4°C° 0 mm 2 mps 628 mmHg 70%
    04:00 +3°C° 0 mm 2 mps 628 mmHg 72%
    05:00 +3°C° 0 mm 2 mps 628 mmHg 74%
    06:00 +4°C° 0 mm 2 mps 628 mmHg 71%
    07:00 +4°C° 0 mm 2 mps 629 mmHg 68%
    08:00 +5°C° 0 mm 2 mps 629 mmHg 65%
    09:00 +7°C° 0 mm 2 mps 630 mmHg 58%
    10:00 +9°C° 0 mm 2 mps 630 mmHg 51%
    11:00 +10°C° 0 mm 2 mps 630 mmHg 44%
    12:00 +13°C° 0 mm 2 mps 630 mmHg 44%
    13:00 +13°C° 0 mm 3 mps 630 mmHg 43%
    14:00 +14°C° 0 mm 4 mps 630 mmHg 42%
    15:00 +14°C° 0 mm 3 mps 630 mmHg 43%
    16:00 +14°C° 0 mm 3 mps 629 mmHg 43%
    17:00 +14°C° 0 mm 3 mps 629 mmHg 44%
    18:00 +12°C° 0 mm 3 mps 629 mmHg 50%
    19:00 +12°C° 0 mm 2 mps 629 mmHg 56%
    20:00 +9°C° 0 mm 2 mps 628 mmHg 61%
    21:00 +9°C° 0 mm 2 mps 628 mmHg 64%
    22:00 +8°C° 0 mm 2 mps 628 mmHg 66%
    23:00 +8°C° 0 mm 2 mps 628 mmHg 69%

    Day after tomorrow, 19 August, Sunday

    Time Temperature Precipitation Wind Pressure Humidity
    00:00 +7°C° 0 mm 2 mps 628 mmHg 70%
    01:00 +7°C° 0 mm 2 mps 628 mmHg 72%
    02:00 +7°C° 0 mm 2 mps 627 mmHg 73%
    03:00 +6°C° 0 mm 2 mps 627 mmHg 74%
    04:00 +5°C° 0 mm 3 mps 627 mmHg 74%
    05:00 +5°C° 0 mm 3 mps 626 mmHg 75%
    06:00 +7°C° 0 mm 3 mps 627 mmHg 73%
    07:00 +7°C° 0 mm 4 mps 627 mmHg 72%
    08:00 +8°C° 0 mm 4 mps 628 mmHg 71%
    09:00 +9°C° 0 mm 5 mps 628 mmHg 66%
    10:00 +12°C° 0 mm 5 mps 628 mmHg 61%
    11:00 +13°C° 0 mm 6 mps 628 mmHg 56%
    12:00 +14°C° 0 mm 6 mps 628 mmHg 52%
    13:00 +15°C° 0 mm 6 mps 627 mmHg 48%
    14:00 +16°C° 0 mm 6 mps 627 mmHg 43%
    15:00 +16°C° 0 mm 6 mps 626 mmHg 42%
    16:00 +16°C° 0 mm 5 mps 626 mmHg 41%
    17:00 +17°C° 0 mm 4 mps 626 mmHg 39%
    18:00 +15°C° 0 mm 4 mps 625 mmHg 43%
    19:00 +13°C° 0 mm 3 mps 625 mmHg 47%
    20:00 +13°C° 0 mm 2 mps 625 mmHg 50%
    21:00 +13°C° 0 mm 2 mps 625 mmHg 51%
    22:00 +12°C° 0 mm 2 mps 625 mmHg 51%
    23:00 +12°C° 0 mm 2 mps 625 mmHg 52%

    20 August, Monday

    Time Temperature Precipitation Wind Pressure Humidity
    00:00 +10°C° 0 mm 2 mps 624 mmHg 52%
    01:00 +10°C° 0 mm 2 mps 624 mmHg 51%
    02:00 +10°C° 0 mm 2 mps 624 mmHg 51%
    03:00 +9°C° 0 mm 2 mps 624 mmHg 53%
    04:00 +9°C° 0 mm 3 mps 624 mmHg 54%
    05:00 +9°C° 0 mm 3 mps 623 mmHg 56%
    06:00 +9°C° 0 mm 3 mps 624 mmHg 56%
    07:00 +10°C° 0 mm 2 mps 625 mmHg 57%
    08:00 +12°C° 0 mm 2 mps 625 mmHg 57%
    09:00 +13°C° 0 mm 3 mps 626 mmHg 51%
    10:00 +15°C° 0 mm 4 mps 626 mmHg 45%
    11:00 +17°C° 0 mm 5 mps 626 mmHg 39%
    12:00 +19°C° 0 mm 6 mps 626 mmHg 33%
    13:00 +20°C° 0 mm 6 mps 626 mmHg 26%
    14:00 +21°C° 0 mm 7 mps 625 mmHg 20%
    15:00 +21°C° 0 mm 6 mps 625 mmHg 19%
    16:00 +20°C° 0 mm 5 mps 625 mmHg 18%
    17:00 +20°C° 0 mm 5 mps 625 mmHg 17%
    18:00 +17°C° 0 mm 3 mps 624 mmHg 19%
    19:00 +15°C° 0 mm 2 mps 624 mmHg 20%
    20:00 +13°C° 0 mm 1 mps 624 mmHg 22%
    21:00 +12°C° 0 mm 1 mps 624 mmHg 22%
    22:00 +12°C° 0 mm 1 mps 624 mmHg 23%
    23:00 +11°C° 0 mm 1 mps 624 mmHg 24%

    21 August, Tuesday

    Time Temperature Precipitation Wind Pressure Humidity
    00:00 +11°C° 0 mm 1 mps 623 mmHg 24%
    01:00 +10°C° 0 mm 1 mps 623 mmHg 25%
    02:00 +10°C° 0 mm 1 mps 622 mmHg 25%
    03:00 +10°C° 0 mm 1 mps 623 mmHg 25%
    04:00 +9°C° 0 mm 0 mps 623 mmHg 26%
    05:00 +9°C° 0 mm 0 mps 623 mmHg 26%
    06:00 +10°C° 0 mm 0 mps 623 mmHg 27%
    07:00 +11°C° 0 mm 0 mps 624 mmHg 27%
    08:00 +12°C° 0 mm 0 mps 625 mmHg 28%
    09:00 +15°C° 0 mm 1 mps 625 mmHg 23%
    10:00 +16°C° 0 mm 1 mps 626 mmHg 19%
    11:00 +19°C° 0 mm 1 mps 626 mmHg 14%
    12:00 +18°C° 0 mm 2 mps 626 mmHg 13%
    13:00 +19°C° 0 mm 2 mps 626 mmHg 12%
    14:00 +19°C° 0 mm 2 mps 625 mmHg 12%
    15:00 +19°C° 0 mm 2 mps 625 mmHg 13%
    16:00 +18°C° 0 mm 2 mps 625 mmHg 15%
    17:00 +18°C° 0 mm 2 mps 625 mmHg 17%
    18:00 +17°C° 0 mm 2 mps 625 mmHg 20%
    19:00 +15°C° 0 mm 2 mps 625 mmHg 23%
    20:00 +14°C° 0 mm 2 mps 625 mmHg 26%
    21:00 +14°C° 0 mm 2 mps 625 mmHg 29%
    22:00 +14°C° 0 mm 2 mps 625 mmHg 31%
    23:00 +13°C° 0 mm 1 mps 625 mmHg 34%

    22 August, Wednesday

    Time Temperature Precipitation Wind Pressure Humidity
    00:00 +13°C° 0.1 mm 2 mps 625 mmHg 39%
    01:00 +12°C° 0.1 mm 2 mps 625 mmHg 45%
    02:00 +12°C° 0.1 mm 2 mps 625 mmHg 50%
    03:00 +12°C° 0.1 mm 2 mps 624 mmHg 53%
    04:00 +10°C° 0.1 mm 2 mps 624 mmHg 56%
    05:00 +11°C° 0.1 mm 1 mps 624 mmHg 58%
    06:00 +10°C° 0.1 mm 2 mps 625 mmHg 60%
    07:00 +12°C° 0.1 mm 2 mps 625 mmHg 61%
    08:00 +12°C° 0.1 mm 2 mps 625 mmHg 63%
    09:00 +13°C° 0.4 mm 2 mps 626 mmHg 62%
    10:00 +12°C° 0.4 mm 3 mps 626 mmHg 62%
    11:00 +13°C° 0.4 mm 3 mps 626 mmHg 61%
    12:00 +14°C° 0.3 mm 3 mps 626 mmHg 57%
    13:00 +16°C° 0.3 mm 2 mps 625 mmHg 52%
    14:00 +16°C° 0.3 mm 2 mps 625 mmHg 48%
    15:00 +16°C° 0.2 mm 2 mps 625 mmHg 49%
    16:00 +16°C° 0.2 mm 1 mps 625 mmHg 50%
    17:00 +16°C° 0.2 mm 1 mps 625 mmHg 51%
    18:00 +15°C° 0 mm 1 mps 624 mmHg 56%
    19:00 +14°C° 0 mm 1 mps 624 mmHg 60%
    20:00 +12°C° 0 mm 2 mps 624 mmHg 64%
    21:00 +12°C° 0 mm 1 mps 624 mmHg 65%
    22:00 +11°C° 0 mm 1 mps 624 mmHg 66%
    23:00 +11°C° 0 mm 1 mps 624 mmHg 66%
    Show more